JST538 NWWW-YBCG

Flight info

Callsign JST538
Flight time 2h 13m
Altitude 38000
Route BEDON DCT NISAS DCT TEBUR DCT ISTEM DCT LAPIP DCT IRPOD DCT REGOM
Aircraft A319/M-SDE3FGHIRWY/LB1

Departure

Time 2026-04-22 14:14
Airport La Tontouta International Airport (NWWW)

Arrival

Time 2026-04-22 16:28
Airport Gold Coast Airport (YBCG)
Time Latitude Longitude Altitude Speed Heading
2026-04-22 13:55 -22.01265 166.21632 52 ft 0 kts 120°
2026-04-22 14:08 -22.01264 166.21631 52 ft 2 kts 120°
2026-04-22 14:08 -22.01257 166.21617 51 ft 2 kts 121°
2026-04-22 14:08 -22.01249 166.21602 51 ft 2 kts 121°
2026-04-22 14:08 -22.01241 166.21588 51 ft 2 kts 121°
2026-04-22 14:09 -22.01234 166.21574 50 ft 2 kts 121°
2026-04-22 14:09 -22.01222 166.21565 50 ft 2 kts 163°
2026-04-22 14:09 -22.01207 166.21564 50 ft 2 kts 197°
2026-04-22 14:09 -22.01198 166.21568 51 ft 0 kts 218°
2026-04-22 14:11 -22.01218 166.21556 50 ft 8 kts 209°
2026-04-22 14:11 -22.01302 166.21501 46 ft 22 kts 211°
2026-04-22 14:11 -22.01456 166.21396 40 ft 26 kts 231°
2026-04-22 14:12 -22.01404 166.21213 36 ft 35 kts 302°
2026-04-22 14:12 -22.01211 166.20868 30 ft 71 kts 302°
2026-04-22 14:12 -22.01052 166.20589 26 ft 41 kts 301°
2026-04-22 14:12 -22.00862 166.20252 30 ft 50 kts 301°
2026-04-22 14:13 -22.00744 166.20044 35 ft 24 kts 311°
2026-04-22 14:13 -22.00708 166.19974 36 ft 9 kts 134°
2026-04-22 14:13 -22.00727 166.20027 35 ft 9 kts 119°
2026-04-22 14:13 -22.00860 166.20254 30 ft 74 kts 121°
2026-04-22 14:14 -22.01268 166.20973 32 ft 145 kts 121°
2026-04-22 14:14 -22.01852 166.22020 399 ft 172 kts 120°
2026-04-22 14:14 -22.02438 166.23070 1243 ft 163 kts 122°
2026-04-22 14:14 -22.03037 166.24094 1898 ft 165 kts 122°
2026-04-22 14:15 -22.03669 166.25177 2356 ft 180 kts 123°
2026-04-22 14:15 -22.04620 166.26154 2780 ft 200 kts 153°
2026-04-22 14:15 -22.06043 166.26410 3152 ft 226 kts 188°
2026-04-22 14:15 -22.07510 166.25621 3590 ft 250 kts 226°
2026-04-22 14:16 -22.08304 166.23904 4129 ft 269 kts 262°
2026-04-22 14:16 -22.08335 166.21876 4989 ft 273 kts 274°
2026-04-22 14:16 -22.08189 166.19856 5959 ft 273 kts 275°
2026-04-22 14:16 -22.08050 166.17848 6886 ft 269 kts 274°
2026-04-22 14:17 -22.07944 166.15836 7558 ft 276 kts 273°
2026-04-22 14:17 -22.07863 166.13780 8374 ft 278 kts 273°
2026-04-22 14:17 -22.07797 166.11716 9267 ft 278 kts 273°
2026-04-22 14:17 -22.07737 166.09650 10074 ft 278 kts 273°
2026-04-22 14:18 -22.07678 166.07558 10720 ft 285 kts 272°
2026-04-22 14:18 -22.07921 166.05383 11025 ft 306 kts 253°
2026-04-22 14:18 -22.08848 166.03239 11353 ft 325 kts 245°
2026-04-22 14:18 -22.09959 166.01070 11875 ft 334 kts 244°
2026-04-22 14:19 -22.11056 165.98874 12569 ft 336 kts 245°
2026-04-22 14:19 -22.12133 165.96626 13275 ft 338 kts 246°
2026-04-22 14:19 -22.13181 165.94385 13924 ft 340 kts 247°
2026-04-22 14:19 -22.14254 165.92094 14569 ft 343 kts 247°
2026-04-22 14:20 -22.16425 165.87497 15815 ft 348 kts 247°
2026-04-22 14:20 -22.17529 165.85153 16398 ft 351 kts 248°
2026-04-22 14:20 -22.18625 165.82823 16949 ft 354 kts 248°
2026-04-22 14:21 -22.20863 165.78056 18079 ft 359 kts 248°
2026-04-22 14:21 -22.21991 165.75647 18643 ft 361 kts 248°
2026-04-22 14:22 -22.24256 165.70811 19784 ft 363 kts 248°
2026-04-22 14:22 -22.25389 165.68393 20319 ft 365 kts 247°
2026-04-22 14:22 -22.27691 165.63470 21279 ft 371 kts 247°
2026-04-22 14:23 -22.28861 165.60968 21699 ft 375 kts 247°
2026-04-22 14:23 -22.30042 165.58441 22164 ft 378 kts 247°
2026-04-22 14:23 -22.31228 165.55904 22631 ft 379 kts 247°
2026-04-22 14:23 -22.32414 165.53368 23081 ft 381 kts 247°
2026-04-22 14:24 -22.33601 165.50827 23544 ft 382 kts 247°
2026-04-22 14:24 -22.34794 165.48274 24015 ft 382 kts 247°
2026-04-22 14:24 -22.35991 165.45712 24468 ft 383 kts 247°
2026-04-22 14:24 -22.37186 165.43149 24871 ft 384 kts 247°
2026-04-22 14:25 -22.38389 165.40567 25245 ft 387 kts 248°
2026-04-22 14:25 -22.39595 165.37976 25633 ft 388 kts 248°
2026-04-22 14:25 -22.40805 165.35373 26026 ft 389 kts 248°
2026-04-22 14:25 -22.42023 165.32756 26433 ft 390 kts 248°
2026-04-22 14:26 -22.43244 165.30127 26830 ft 391 kts 249°
2026-04-22 14:26 -22.44471 165.27486 27219 ft 393 kts 248°
2026-04-22 14:26 -22.45682 165.24878 27606 ft 393 kts 249°
2026-04-22 14:26 -22.46911 165.22229 28018 ft 394 kts 249°
2026-04-22 14:27 -22.48141 165.19579 28404 ft 395 kts 249°
2026-04-22 14:27 -22.49376 165.16916 28767 ft 396 kts 249°
2026-04-22 14:27 -22.50595 165.14282 29095 ft 397 kts 249°
2026-04-22 14:27 -22.51829 165.11618 29511 ft 397 kts 249°
2026-04-22 14:28 -22.53068 165.08942 29986 ft 394 kts 249°
2026-04-22 14:28 -22.54283 165.06319 30444 ft 392 kts 249°
2026-04-22 14:28 -22.55490 165.03706 30873 ft 390 kts 249°
2026-04-22 14:28 -22.56716 165.01056 31268 ft 389 kts 250°
2026-04-22 14:29 -22.57919 164.98450 31652 ft 388 kts 249°
2026-04-22 14:29 -22.59137 164.95811 32047 ft 387 kts 250°
2026-04-22 14:29 -22.60350 164.93178 32407 ft 387 kts 250°
2026-04-22 14:29 -22.61552 164.90569 32787 ft 385 kts 250°
2026-04-22 14:30 -22.62738 164.87996 33152 ft 384 kts 250°
2026-04-22 14:30 -22.63928 164.85413 33541 ft 383 kts 250°
2026-04-22 14:30 -22.65115 164.82835 33947 ft 382 kts 250°
2026-04-22 14:30 -22.66296 164.80267 34331 ft 380 kts 250°
2026-04-22 14:31 -22.67456 164.77742 34702 ft 379 kts 250°
2026-04-22 14:31 -22.68631 164.75188 35044 ft 378 kts 250°
2026-04-22 14:31 -22.69803 164.72632 35378 ft 377 kts 250°
2026-04-22 14:31 -22.70955 164.70125 35721 ft 375 kts 250°
2026-04-22 14:32 -22.72124 164.67577 36033 ft 374 kts 250°
2026-04-22 14:32 -22.73269 164.65080 36308 ft 373 kts 250°
2026-04-22 14:32 -22.74430 164.62546 36504 ft 374 kts 250°
2026-04-22 14:32 -22.75593 164.60004 36676 ft 375 kts 250°
2026-04-22 14:33 -22.76743 164.57491 36847 ft 376 kts 250°
2026-04-22 14:33 -22.77913 164.54932 37016 ft 377 kts 250°
2026-04-22 14:33 -22.79066 164.52411 37182 ft 377 kts 250°
2026-04-22 14:33 -22.80233 164.49855 37333 ft 378 kts 250°
2026-04-22 14:34 -22.81409 164.47284 37465 ft 379 kts 250°
2026-04-22 14:34 -22.82566 164.44753 37581 ft 380 kts 250°
2026-04-22 14:34 -22.83740 164.42178 37706 ft 381 kts 250°
2026-04-22 14:34 -22.84915 164.39600 37852 ft 381 kts 250°
2026-04-22 14:35 -22.86080 164.37047 37977 ft 381 kts 250°
2026-04-22 14:35 -22.88441 164.31856 38071 ft 383 kts 250°
2026-04-22 14:36 -22.90790 164.26698 38072 ft 383 kts 250°
2026-04-22 14:36 -22.93133 164.21529 38074 ft 383 kts 250°
2026-04-22 14:37 -22.95469 164.16357 38069 ft 383 kts 250°
2026-04-22 14:37 -22.97817 164.11156 38077 ft 383 kts 250°
2026-04-22 14:38 -23.00141 164.05998 38074 ft 382 kts 250°
2026-04-22 14:38 -23.02484 164.00797 38074 ft 383 kts 250°
2026-04-22 14:39 -23.04810 163.95624 38074 ft 383 kts 250°
2026-04-22 14:39 -23.07143 163.90428 38075 ft 382 kts 250°
2026-04-22 14:40 -23.10631 163.82651 38075 ft 382 kts 250°
2026-04-22 14:40 -23.12955 163.77461 38076 ft 382 kts 250°
2026-04-22 14:41 -23.15261 163.72311 38076 ft 381 kts 250°
2026-04-22 14:41 -23.17577 163.67129 38076 ft 380 kts 250°
2026-04-22 14:42 -23.19878 163.61978 38072 ft 380 kts 250°
2026-04-22 14:42 -23.22195 163.56781 38078 ft 380 kts 250°
2026-04-22 14:43 -23.24493 163.51621 38077 ft 380 kts 250°
2026-04-22 14:43 -23.26778 163.46486 38076 ft 380 kts 250°
2026-04-22 14:44 -23.29082 163.41306 38074 ft 380 kts 250°
2026-04-22 14:44 -23.31368 163.36156 38074 ft 380 kts 250°
2026-04-22 14:45 -23.33662 163.30983 38075 ft 380 kts 250°
2026-04-22 14:45 -23.35949 163.25824 38075 ft 379 kts 250°
2026-04-22 14:46 -23.38233 163.20657 38076 ft 379 kts 250°
2026-04-22 14:46 -23.40513 163.15501 38073 ft 379 kts 250°
2026-04-22 14:47 -23.42792 163.10339 38077 ft 379 kts 250°
2026-04-22 14:47 -23.45075 163.05162 38075 ft 380 kts 250°
2026-04-22 14:48 -23.47364 162.99966 38074 ft 380 kts 250°
2026-04-22 14:48 -23.49645 162.94810 38075 ft 379 kts 250°
2026-04-22 14:49 -23.51928 162.89641 38074 ft 378 kts 249°
2026-04-22 14:49 -23.54203 162.84483 38074 ft 377 kts 249°
2026-04-22 14:50 -23.56469 162.79343 38075 ft 377 kts 250°
2026-04-22 14:50 -23.58733 162.74193 38074 ft 377 kts 250°
2026-04-22 14:51 -23.61000 162.69031 38073 ft 377 kts 249°
2026-04-22 14:51 -23.63248 162.63910 38075 ft 378 kts 250°
2026-04-22 14:52 -23.65510 162.58745 38073 ft 377 kts 250°
2026-04-22 14:52 -23.67772 162.53575 38074 ft 376 kts 249°
2026-04-22 14:53 -23.70028 162.48419 38075 ft 376 kts 249°
2026-04-22 14:53 -23.72267 162.43295 38074 ft 376 kts 250°
2026-04-22 14:54 -23.74522 162.38127 38074 ft 376 kts 249°
2026-04-22 14:54 -23.76765 162.32974 38077 ft 376 kts 250°
2026-04-22 14:55 -23.78997 162.27849 38074 ft 375 kts 250°
2026-04-22 14:55 -23.81245 162.22685 38074 ft 375 kts 250°
2026-04-22 14:56 -23.83468 162.17567 38074 ft 375 kts 250°
2026-04-22 14:56 -23.85707 162.12407 38074 ft 375 kts 249°
2026-04-22 14:57 -23.87929 162.07280 38073 ft 375 kts 249°
2026-04-22 14:57 -23.90149 162.02150 38075 ft 375 kts 250°
2026-04-22 14:58 -23.92381 161.96992 38076 ft 375 kts 250°
2026-04-22 14:58 -23.94609 161.91836 38075 ft 376 kts 250°
2026-04-22 14:59 -23.96829 161.86688 38076 ft 376 kts 250°
2026-04-22 14:59 -23.99067 161.81496 38077 ft 377 kts 249°
2026-04-22 15:00 -24.01296 161.76318 38079 ft 376 kts 249°
2026-04-22 15:00 -24.03511 161.71172 38074 ft 376 kts 249°
2026-04-22 15:01 -24.05735 161.65991 38079 ft 375 kts 250°
2026-04-22 15:01 -24.07939 161.60861 38078 ft 375 kts 250°
2026-04-22 15:02 -24.10149 161.55696 38077 ft 374 kts 249°
2026-04-22 15:02 -24.12357 161.50545 38076 ft 374 kts 250°
2026-04-22 15:03 -24.14551 161.45409 38080 ft 375 kts 250°
2026-04-22 15:03 -24.16760 161.40236 38086 ft 374 kts 249°
2026-04-22 15:04 -24.18951 161.35106 38090 ft 374 kts 249°
2026-04-22 15:04 -24.21154 161.29936 38092 ft 373 kts 250°
2026-04-22 15:05 -24.23346 161.24786 38091 ft 373 kts 250°
2026-04-22 15:05 -24.25535 161.19635 38094 ft 373 kts 250°
2026-04-22 15:06 -24.27728 161.14471 38094 ft 373 kts 250°
2026-04-22 15:06 -24.29920 161.09308 38094 ft 373 kts 250°
2026-04-22 15:07 -24.32089 161.04185 38089 ft 373 kts 250°
2026-04-22 15:07 -24.34277 160.99022 38077 ft 374 kts 250°
2026-04-22 15:08 -24.36466 160.93843 38077 ft 374 kts 250°
2026-04-22 15:08 -24.38652 160.88667 38076 ft 373 kts 250°
2026-04-22 15:09 -24.40825 160.83519 38075 ft 374 kts 250°
2026-04-22 15:09 -24.43005 160.78342 38077 ft 373 kts 250°
2026-04-22 15:10 -24.45171 160.73196 38075 ft 373 kts 250°
2026-04-22 15:10 -24.47349 160.68008 38078 ft 372 kts 250°
2026-04-22 15:11 -24.49505 160.62878 38078 ft 371 kts 250°
2026-04-22 15:11 -24.51666 160.57724 38079 ft 371 kts 250°
2026-04-22 15:12 -24.53814 160.52593 38079 ft 372 kts 250°
2026-04-22 15:12 -24.55959 160.47456 38082 ft 371 kts 250°
2026-04-22 15:13 -24.58111 160.42307 38082 ft 372 kts 250°
2026-04-22 15:13 -24.60478 160.37216 38079 ft 374 kts 245°
2026-04-22 15:14 -24.63182 160.32327 38085 ft 375 kts 244°
2026-04-22 15:14 -24.65922 160.27449 38081 ft 375 kts 244°
2026-04-22 15:15 -24.68664 160.22562 38083 ft 374 kts 244°
2026-04-22 15:15 -24.71390 160.17711 38085 ft 375 kts 244°
2026-04-22 15:16 -24.74120 160.12842 38085 ft 375 kts 244°
2026-04-22 15:16 -24.76864 160.07945 38086 ft 375 kts 244°
2026-04-22 15:17 -24.79596 160.03065 38088 ft 375 kts 244°
2026-04-22 15:17 -24.82328 159.98178 38091 ft 375 kts 244°
2026-04-22 15:18 -24.85045 159.93317 38090 ft 374 kts 244°
2026-04-22 15:18 -24.87775 159.88429 38092 ft 374 kts 244°
2026-04-22 15:19 -24.90487 159.83562 38096 ft 375 kts 244°
2026-04-22 15:19 -24.93229 159.78641 38095 ft 375 kts 244°
2026-04-22 15:20 -24.95943 159.73767 38095 ft 375 kts 244°
2026-04-22 15:20 -24.98651 159.68892 38098 ft 373 kts 244°
2026-04-22 15:21 -25.01378 159.63982 38096 ft 374 kts 244°
2026-04-22 15:21 -25.04085 159.59102 38097 ft 374 kts 244°
2026-04-22 15:22 -25.06788 159.54224 38094 ft 373 kts 244°
2026-04-22 15:22 -25.09514 159.49304 38102 ft 374 kts 244°
2026-04-22 15:23 -25.12216 159.44412 38097 ft 374 kts 244°
2026-04-22 15:23 -25.14920 159.39520 38096 ft 374 kts 244°
2026-04-22 15:24 -25.17617 159.34631 38097 ft 374 kts 244°
2026-04-22 15:24 -25.20319 159.29732 38101 ft 374 kts 244°
2026-04-22 15:25 -25.23020 159.24824 38101 ft 374 kts 244°
2026-04-22 15:25 -25.25717 159.19926 38098 ft 374 kts 244°
2026-04-22 15:26 -25.28420 159.15008 38098 ft 374 kts 244°
2026-04-22 15:26 -25.31114 159.10103 38099 ft 374 kts 244°
2026-04-22 15:27 -25.33800 159.05205 38097 ft 374 kts 244°
2026-04-22 15:27 -25.36497 159.00279 38100 ft 374 kts 244°
2026-04-22 15:28 -25.39187 158.95367 38098 ft 374 kts 244°
2026-04-22 15:28 -25.41871 158.90459 38098 ft 374 kts 244°
2026-04-22 15:29 -25.44552 158.85551 38098 ft 374 kts 244°
2026-04-22 15:30 -25.48137 158.78979 38098 ft 375 kts 244°
2026-04-22 15:30 -25.51278 158.73210 38094 ft 375 kts 244°
2026-04-22 15:31 -25.53958 158.68285 38099 ft 374 kts 244°
2026-04-22 15:31 -25.56653 158.63329 38098 ft 375 kts 244°
2026-04-22 15:32 -25.59330 158.58398 38097 ft 375 kts 244°
2026-04-22 15:32 -25.62026 158.53424 38097 ft 376 kts 244°
2026-04-22 15:33 -25.64700 158.48492 38098 ft 376 kts 244°
2026-04-22 15:33 -25.67390 158.43520 38096 ft 376 kts 244°
2026-04-22 15:34 -25.70071 158.38560 38097 ft 376 kts 244°
2026-04-22 15:34 -25.72764 158.33574 38102 ft 376 kts 244°
2026-04-22 15:35 -25.74988 158.29450 38097 ft 376 kts 244°
2026-04-22 15:35 -25.78118 158.23645 38099 ft 376 kts 244°
2026-04-22 15:36 -25.80807 158.18654 38101 ft 376 kts 244°
2026-04-22 15:36 -25.83469 158.13702 38094 ft 377 kts 244°
2026-04-22 15:37 -25.86157 158.08697 38094 ft 377 kts 244°
2026-04-22 15:37 -25.88831 158.03714 38101 ft 377 kts 244°
2026-04-22 15:38 -25.91521 157.98691 38097 ft 377 kts 244°
2026-04-22 15:38 -25.95534 157.91197 38094 ft 378 kts 244°
2026-04-22 15:39 -25.98204 157.86200 38098 ft 378 kts 244°
2026-04-22 15:39 -26.00887 157.81177 38100 ft 378 kts 244°
2026-04-22 15:40 -26.03562 157.76158 38099 ft 378 kts 244°
2026-04-22 15:40 -26.06250 157.71115 38101 ft 378 kts 244°
2026-04-22 15:41 -26.08928 157.66083 38102 ft 378 kts 244°
2026-04-22 15:41 -26.11605 157.61047 38103 ft 378 kts 244°
2026-04-22 15:42 -26.14276 157.56014 38104 ft 378 kts 244°
2026-04-22 15:42 -26.16955 157.50964 38104 ft 378 kts 244°
2026-04-22 15:43 -26.19621 157.45929 38106 ft 378 kts 244°
2026-04-22 15:43 -26.22287 157.40894 38108 ft 378 kts 244°
2026-04-22 15:44 -26.24954 157.35849 38110 ft 378 kts 244°
2026-04-22 15:44 -26.27621 157.30795 38113 ft 378 kts 244°
2026-04-22 15:45 -26.30295 157.25725 38110 ft 378 kts 244°
2026-04-22 15:45 -26.32948 157.20686 38110 ft 378 kts 244°
2026-04-22 15:46 -26.35607 157.15637 38112 ft 378 kts 244°
2026-04-22 15:46 -26.38257 157.10594 38114 ft 378 kts 244°
2026-04-22 15:47 -26.40918 157.05528 38113 ft 378 kts 244°
2026-04-22 15:47 -26.43579 157.00458 38114 ft 378 kts 244°
2026-04-22 15:48 -26.46223 156.95407 38115 ft 378 kts 244°
2026-04-22 15:48 -26.48869 156.90352 38119 ft 378 kts 244°
2026-04-22 15:49 -26.51520 156.85275 38119 ft 377 kts 244°
2026-04-22 15:49 -26.54159 156.80223 38123 ft 377 kts 245°
2026-04-22 15:50 -26.56785 156.75188 38123 ft 378 kts 244°
2026-04-22 15:50 -26.59436 156.70096 38122 ft 378 kts 244°
2026-04-22 15:51 -26.62061 156.65051 38126 ft 378 kts 244°
2026-04-22 15:51 -26.64699 156.59976 38123 ft 378 kts 244°
2026-04-22 15:52 -26.67335 156.54898 38127 ft 378 kts 244°
2026-04-22 15:52 -26.69986 156.49786 38122 ft 378 kts 244°
2026-04-22 15:53 -26.72614 156.44711 38128 ft 379 kts 244°
2026-04-22 15:53 -26.75248 156.39618 38129 ft 378 kts 244°
2026-04-22 15:54 -26.77868 156.34547 38133 ft 379 kts 245°
2026-04-22 15:54 -26.80513 156.29417 38130 ft 378 kts 244°
2026-04-22 15:55 -26.83139 156.24327 38129 ft 379 kts 245°
2026-04-22 15:55 -26.85769 156.19222 38132 ft 379 kts 244°
2026-04-22 15:56 -26.88390 156.14121 38139 ft 379 kts 245°
2026-04-22 15:56 -26.91016 156.09006 38140 ft 379 kts 245°
2026-04-22 15:57 -26.93637 156.03900 38130 ft 379 kts 245°
2026-04-22 15:57 -26.96277 155.98743 38139 ft 380 kts 245°
2026-04-22 15:58 -26.98898 155.93620 38140 ft 380 kts 245°
2026-04-22 15:58 -27.01299 155.88394 38141 ft 378 kts 248°
2026-04-22 15:59 -27.03540 155.83087 38140 ft 378 kts 248°
2026-04-22 15:59 -27.05788 155.77751 38139 ft 378 kts 248°
2026-04-22 16:00 -27.08038 155.72398 38141 ft 378 kts 248°
2026-04-22 16:00 -27.10268 155.67082 38144 ft 378 kts 248°
2026-04-22 16:01 -27.12493 155.61765 38143 ft 378 kts 249°
2026-04-22 16:01 -27.14735 155.56400 38147 ft 378 kts 248°
2026-04-22 16:02 -27.16963 155.51057 37891 ft 378 kts 248°
2026-04-22 16:02 -27.18068 155.48412 37606 ft 375 kts 248°
2026-04-22 16:02 -27.19180 155.45746 37320 ft 373 kts 248°
2026-04-22 16:03 -27.20272 155.43126 37036 ft 372 kts 248°
2026-04-22 16:03 -27.21358 155.40518 36749 ft 371 kts 248°
2026-04-22 16:03 -27.22454 155.37880 36472 ft 371 kts 248°
2026-04-22 16:03 -27.23552 155.35240 36198 ft 372 kts 248°
2026-04-22 16:04 -27.24639 155.32622 35929 ft 372 kts 248°
2026-04-22 16:04 -27.25740 155.29967 35657 ft 373 kts 248°
2026-04-22 16:04 -27.26837 155.27322 35383 ft 374 kts 248°
2026-04-22 16:04 -27.27932 155.24683 35111 ft 375 kts 248°
2026-04-22 16:05 -27.28655 155.22935 34932 ft 376 kts 248°
2026-04-22 16:05 -27.30131 155.19374 34568 ft 377 kts 248°
2026-04-22 16:05 -27.31245 155.16684 34300 ft 379 kts 248°
2026-04-22 16:05 -27.32350 155.14011 33905 ft 381 kts 247°
2026-04-22 16:06 -27.33458 155.11325 33378 ft 383 kts 247°
2026-04-22 16:06 -27.34578 155.08615 32704 ft 385 kts 247°
2026-04-22 16:06 -27.35713 155.05865 31894 ft 390 kts 247°
2026-04-22 16:06 -27.36854 155.03098 30993 ft 396 kts 246°
2026-04-22 16:07 -27.38013 155.00282 30178 ft 399 kts 246°
2026-04-22 16:07 -27.39167 154.97484 29603 ft 397 kts 246°
2026-04-22 16:07 -27.40336 154.94649 29031 ft 394 kts 246°
2026-04-22 16:07 -27.41472 154.91890 28500 ft 391 kts 246°
2026-04-22 16:08 -27.42620 154.89098 27973 ft 387 kts 246°
2026-04-22 16:08 -27.43741 154.86368 27467 ft 384 kts 246°
2026-04-22 16:08 -27.44854 154.83655 26952 ft 380 kts 246°
2026-04-22 16:08 -27.45956 154.80969 26449 ft 377 kts 245°
2026-04-22 16:09 -27.47045 154.78316 25952 ft 373 kts 246°
2026-04-22 16:09 -27.48124 154.75684 25439 ft 371 kts 245°
2026-04-22 16:09 -27.49191 154.73073 24937 ft 368 kts 245°
2026-04-22 16:09 -27.50255 154.70473 24427 ft 365 kts 245°
2026-04-22 16:10 -27.51309 154.67897 23915 ft 363 kts 245°
2026-04-22 16:10 -27.52360 154.65323 23418 ft 361 kts 245°
2026-04-22 16:10 -27.53062 154.63605 23082 ft 359 kts 245°
2026-04-22 16:10 -27.54446 154.60216 22419 ft 358 kts 245°
2026-04-22 16:11 -27.55477 154.57687 21940 ft 356 kts 245°
2026-04-22 16:11 -27.56514 154.55141 21443 ft 355 kts 245°
2026-04-22 16:11 -27.57531 154.52643 20951 ft 354 kts 245°
2026-04-22 16:11 -27.58565 154.50102 20450 ft 354 kts 245°
2026-04-22 16:12 -27.59578 154.47612 19955 ft 353 kts 245°
2026-04-22 16:12 -27.60598 154.45103 19469 ft 353 kts 244°
2026-04-22 16:12 -27.61621 154.42586 18984 ft 352 kts 244°
2026-04-22 16:12 -27.62631 154.40100 18499 ft 351 kts 244°
2026-04-22 16:13 -27.63641 154.37611 18010 ft 351 kts 244°
2026-04-22 16:13 -27.64652 154.35118 17517 ft 350 kts 244°
2026-04-22 16:13 -27.65679 154.32582 17011 ft 350 kts 244°
2026-04-22 16:13 -27.66691 154.30084 16505 ft 351 kts 244°
2026-04-22 16:14 -27.67711 154.27562 15979 ft 352 kts 244°
2026-04-22 16:14 -27.68719 154.25072 15453 ft 353 kts 244°
2026-04-22 16:14 -27.69744 154.22537 14914 ft 354 kts 244°
2026-04-22 16:14 -27.70769 154.20004 14379 ft 354 kts 244°
2026-04-22 16:15 -27.71778 154.17503 13848 ft 355 kts 244°
2026-04-22 16:15 -27.72798 154.14975 13319 ft 355 kts 244°
2026-04-22 16:15 -27.73818 154.12447 12804 ft 355 kts 244°
2026-04-22 16:15 -27.74845 154.09897 12287 ft 354 kts 243°
2026-04-22 16:16 -27.75860 154.07375 11786 ft 354 kts 243°
2026-04-22 16:16 -27.76867 154.04872 11305 ft 352 kts 243°
2026-04-22 16:16 -27.77878 154.02359 10882 ft 348 kts 243°
2026-04-22 16:16 -27.78868 153.99898 10563 ft 342 kts 243°
2026-04-22 16:17 -27.79835 153.97485 10361 ft 331 kts 243°
2026-04-22 16:17 -27.80779 153.95128 10273 ft 318 kts 243°
2026-04-22 16:17 -27.81665 153.92917 10231 ft 306 kts 243°
2026-04-22 16:17 -27.82536 153.90744 10007 ft 301 kts 243°
2026-04-22 16:18 -27.83394 153.88603 9716 ft 296 kts 242°
2026-04-22 16:18 -27.84234 153.86505 9475 ft 292 kts 242°
2026-04-22 16:18 -27.85074 153.84410 9224 ft 288 kts 242°
2026-04-22 16:18 -27.85892 153.82364 8969 ft 283 kts 242°
2026-04-22 16:19 -27.86695 153.80357 8713 ft 280 kts 242°
2026-04-22 16:19 -27.87496 153.78354 8424 ft 278 kts 242°
2026-04-22 16:19 -27.88287 153.76376 8117 ft 276 kts 242°
2026-04-22 16:19 -27.89079 153.74394 7797 ft 275 kts 242°
2026-04-22 16:20 -27.89866 153.72423 7478 ft 274 kts 242°
2026-04-22 16:20 -27.90640 153.70487 7177 ft 273 kts 242°
2026-04-22 16:20 -27.91424 153.68520 6865 ft 272 kts 242°
2026-04-22 16:20 -27.92203 153.66565 6553 ft 271 kts 242°
2026-04-22 16:21 -27.92965 153.64650 6268 ft 269 kts 242°
2026-04-22 16:21 -27.93733 153.62724 5995 ft 268 kts 242°
2026-04-22 16:21 -27.94497 153.60805 5709 ft 267 kts 242°
2026-04-22 16:21 -27.95251 153.58907 5403 ft 266 kts 241°
2026-04-22 16:22 -27.96771 153.55080 4753 ft 265 kts 241°
2026-04-22 16:22 -27.97516 153.53204 4461 ft 264 kts 241°
2026-04-22 16:22 -27.98263 153.51321 4181 ft 263 kts 241°
2026-04-22 16:23 -27.99757 153.47554 3670 ft 258 kts 241°
2026-04-22 16:23 -28.00481 153.45726 3397 ft 250 kts 241°
2026-04-22 16:23 -28.01175 153.43970 3031 ft 243 kts 240°
2026-04-22 16:24 -28.01979 153.42348 2760 ft 224 kts 219°
2026-04-22 16:24 -28.04518 153.42145 2664 ft 185 kts 141°
2026-04-22 16:24 -28.05417 153.43094 2699 ft 170 kts 139°
2026-04-22 16:25 -28.06309 153.43929 2402 ft 163 kts 144°
2026-04-22 16:25 -28.08144 153.45285 1743 ft 152 kts 150°
2026-04-22 16:25 -28.09032 153.45865 1499 ft 141 kts 152°
2026-04-22 16:26 -28.09868 153.46396 1310 ft 135 kts 152°
2026-04-22 16:26 -28.10691 153.46916 1139 ft 134 kts 152°
2026-04-22 16:26 -28.11506 153.47435 970 ft 134 kts 152°
2026-04-22 16:26 -28.12324 153.47949 806 ft 136 kts 152°
2026-04-22 16:27 -28.13162 153.48486 636 ft 138 kts 153°
2026-04-22 16:27 -28.14007 153.49008 449 ft 136 kts 153°
2026-04-22 16:27 -28.14801 153.49524 257 ft 124 kts 153°
2026-04-22 16:27 -28.15521 153.49986 84 ft 116 kts 154°
2026-04-22 16:28 -28.16244 153.50442 26 ft 109 kts 151°
2026-04-22 16:28 -28.16647 153.50705 22 ft 37 kts 150°
2026-04-22 16:28 -28.16863 153.50842 22 ft 23 kts 149°
2026-04-22 16:28 -28.16942 153.50911 22 ft 13 kts 104°
2026-04-22 16:29 -28.16913 153.51012 22 ft 14 kts 60°
2026-04-22 16:29 -28.16861 153.51114 22 ft 14 kts 49°
2026-04-22 16:29 -28.16785 153.51112 22 ft 10 kts 338°
2026-04-22 16:29 -28.16727 153.51161 22 ft 11 kts 66°
2026-04-22 16:30 -28.16709 153.51195 22 ft 4 kts 52°
2026-04-22 16:30 -28.16705 153.51202 22 ft 0 kts 59°